421  
ASUS44 KLZK 241812  
RWRLZK  
 
WEATHER ROUNDUP FOR ARKANSAS  
NATIONAL WEATHER SERVICE LITTLE ROCK AR  
1200 PM CST SAT FEB 24 2018  
 
NOTE: "FAIR" INDICATES FEW OR NO CLOUDS BELOW 12,000 FEET WITH NO  
SIGNIFICANT WEATHER AND/OR S TO VISIBILITY
.  
 
ARZ001-003-010-029-241900-  
NORTHWEST ARKANSAS  
 
CITY SKY/WX TMP DP RH WIND PRES REMARKS
 
FAYETTEVILLE RAIN 60 59 96 VRB6 29.71F FOG  
6HR MIN TEMP: 52; 6HR MAX TEMP: 61; 6HR PCP: 0.12;  
 
FORT SMITH CLOUDY 58 57 97 NE10 29.69F  
6HR MIN TEMP: 53; 6HR MAX TEMP: 58; 6HR PCP: 0.20;  
 
HARRISON RAIN 51 51 100 SE13 29.78F VSB 1/4  
6HR MIN TEMP: 47; 6HR MAX TEMP: 51;  
 
BENTONVILLE RAIN 54 53 97 NW8 29.78F FOG  
6HR MIN TEMP: 51; 6HR MAX TEMP: 55; 6HR PCP: 0.47;  
 
ROGERS RAIN 54 54 100 NW6 29.76F FOG  
6HR MIN TEMP: 50; 6HR MAX TEMP: 54; 6HR PCP: 0.39;  
 
SILOAM SPGS HVY RAIN 53 53 100 N12G18 29.76F FOG  
6HR MIN TEMP: 52; 6HR MAX TEMP: 54; 6HR PCP: 0.40;  
 
HIGHFILL HVY RAIN 54 54 100 NW12 29.76F FOG  
6HR MIN TEMP: 52; 6HR MAX TEMP: 55; 6HR PCP: 0.48;  
 
SPRINGDALE LGT RAIN 55 55 100 CALM 29.76F FOG  

 
 
ARZ004-005-016-241900-  
NORTH CENTRAL ARKANSAS  
 
CITY SKY/WX TMP DP RH WIND PRES REMARKS
 
BATESVILLE TSTM 62 61 96 E8 29.83F FOG  
6HR MIN TEMP: 53; 6HR MAX TEMP: 62; 6HR PCP: 0.18;  
 
FLIPPIN RAIN 54 54 100 CALM 29.82F VSB 1  
6HR MIN TEMP: 49; 6HR MAX TEMP: 53; 6HR PCP: 0.06;  
 
MTN HOME RAIN 54 54 100 S9 29.80F VSB 1  
6HR MIN TEMP: 49; 6HR MAX TEMP: 54; 6HR PCP: 0.08;  
 

 
 
ARZ040-041-241900-  
WEST CENTRAL ARKANSAS  
 
CITY SKY/WX TMP DP RH WIND PRES REMARKS
 
MENA CLOUDY 70 70 100 S14G24 29.74F  
MOUNT IDA LGT RAIN 68 67 96 S9G22 29.73F FOG  
6HR MIN TEMP: 62; 6HR MAX TEMP: 67; 6HR PCP: 0.66;  
 

 
 
ARZ009-017-025-026-028-241900-  
NORTHEAST ARKANSAS  
 
CITY SKY/WX TMP DP RH WIND PRES REMARKS
 
JONESBORO LGT RAIN 66 66 100 SW12 29.86F  
6HR MIN TEMP: 57; 6HR MAX TEMP: 66; 6HR PCP: 0.26;  
 
NEWPORT TSTM 63 63 100 S14 29.85F FOG  
6HR MIN TEMP: 53; 6HR MAX TEMP: 63; 6HR PCP: 0.09;  
 
WALNUT RIDGE LGT RAIN 54 54 100 E6 29.86F VSB 1/4  
6HR MIN TEMP: 51; 6HR MAX TEMP: 55; 6HR PCP: 0.01;  
 
BLYTHEVILLE CLOUDY 68 65 90 S13 29.88F  
6HR MIN TEMP: 61; 6HR MAX TEMP: 68; 6HR PCP: 0.25;  
 

 
 
ARZ022-023-033-042-044-241900-  
CENTRAL ARKANSAS  
 
CITY SKY/WX TMP DP RH WIND PRES REMARKS
 
LITTLE ROCK CLOUDY 68 67 96 S14G23 29.82F  
6HR MIN TEMP: 55; 6HR MAX TEMP: 68; 6HR PCP: 0.49;  
 
N LITTLE ROCK N/A 65 65 100 S9G20 29.80F  
6HR MIN TEMP: 57; 6HR MAX TEMP: 65;  
 
JACKSONVILLE CLOUDY 66 66 100 S9G20 29.82F  
6HR MIN TEMP: 58; 6HR MAX TEMP: 66; 6HR PCP: 0.28;  
 
SEARCY TSTM 66 50 56 S13 29.84F  
6HR MIN TEMP: 53; 6HR MAX TEMP: 66; 6HR PCP: 0.35;  
 
HOT SPRINGS LGT RAIN 69 67 93 S13G21 29.81F  
6HR MIN TEMP: 62; 6HR MAX TEMP: 69; 6HR PCP: 0.70;  
 
RUSSELLVILLE LGT RAIN 57 57 100 NE5 29.77F FOG  
6HR MIN TEMP: 52; 6HR MAX TEMP: 56; 6HR PCP: 0.49;  
 
CLINTON RAIN 55 55 100 CALM 29.81F VSB 1/2  

 
 
ARZ036-241900-  
EAST ARKANSAS  
 
CITY SKY/WX TMP DP RH WIND PRES REMARKS
 
WEST MEMPHIS LGT RAIN 67 67 100 S13 29.89F FOG  
6HR MIN TEMP: 63; 6HR MAX TEMP: 68; 6HR PCP: 0.37;  
 

 
 
ARZ050-053-066-070-073-241900-  
SOUTHWEST ARKANSAS  
 
CITY SKY/WX TMP DP RH WIND PRES REMARKS
 
ARKADELPHIA LGT RAIN 66 65 96 S12 29.84F  
6HR MIN TEMP: 55; 6HR MAX TEMP: 67; 6HR PCP: 0.18;  
 
CAMDEN CLOUDY 73 64 73 S14G22 29.86F  
TEXARKANA CLOUDY 70 67 90 S18G24 29.82F  
6HR MIN TEMP: 66; 6HR MAX TEMP: 70; 6HR PCP: 0.08;  
 
EL DORADO PTSUNNY 74 68 81 S15G24 29.89F  
6HR MIN TEMP: 67; 6HR MAX TEMP: 74; 6HR PCP: 0.08;  
 
DE QUEEN CLOUDY 70 69 97 S15G24 29.75R  
6HR MIN TEMP: 61; 6HR MAX TEMP: 70; 6HR PCP: 0.11;  
 

 
 
ARZ056-057-069-241900-  
SOUTHEAST ARKANSAS  
 
CITY SKY/WX TMP DP RH WIND PRES REMARKS
 
PINE BLUFF PTSUNNY 71 67 87 S20 29.87F  
6HR MIN TEMP: 64; 6HR MAX TEMP: 71; 6HR PCP: 0.01;  
 
STUTTGART CLOUDY 70 66 88 S18 29.86F  
6HR MIN TEMP: 62; 6HR MAX TEMP: 68; 6HR PCP: 0.06;  
 
MONTICELLO CLOUDY 75 66 73 S16G24 29.90F  
6HR MIN TEMP: 68; 6HR MAX TEMP: 75; 6HR PCP: 0.01;  
 

 
 
 
 
CLICK HERE TO GO TO PREVIOUS BULLETINS.

The Nexlab AR Page Main Text Page